STARLINK-33848, 63705

Orbit data source: Space-Track

STARLINK-33848, 63705 is a payload satellite owned by SpaceX/Seattle (US) in LEO that was launched on Mon, 28 Apr 2025 UTC via an FALCON 9 launch vehicle from the Air Force Western Test Range (AFWTR). Payload-class satellites include a variety of spacecraft equipped with specific instruments for various scientific and technological missions. These include communications satellites like Starlink; space stations such as the ISS; scientific satellites like the Hubble; Earth observation satellites from companies like Planet Labs, Umbra, and HawkEye 360; GPS; miniature CubeSats for education and research; and military/defense satellites.

Loading next visibility...
Identifier
63705, 2025-087J
Orbit
LEO
Country
Flag of USUS
Related business
Manufacturer
SpaceX/Seattle
Mission
Operational Commercial Communications
Bus & Motor
STARLINK V2MO, Unknown motor
Mass
575 kg wet, ~530 kg dry
Launch date (UTC)
2025-04-28 (1 year ago)
Launch vehicle
FALCON 9
Launch site
Air Force Western Test Range (AFWTR)
Object type
Payload
Rocket body
Debris
Shape & HBR
Box + 2 Pan, 17.7 m
Radar Cross Section
36.964 m², Large (>1 m²)

Expand to show TLE details & history
Last TLE update: 17 hours ago

TLE from 17 hours ago
0 STARLINK-33848
1 63705U 25087J   26171.24589512  .00017760  00000-0  61011-3 0  9999
2 63705  53.1585 103.0373 0001627 101.0123 259.1061 15.30212197 64893
Epoch: 2026-06-20T05:54Z
TLE epoch observation values (Epoch: 2026-06-20T05:54:05.338Z)
Latitude
-0°
Longitude
106.05178°
Altitude
476.289 km
Speed
7.629 km/s
True Right ascension
06h 52m 08s
True Declination
0° 00' 00"
Sunlit
Object was in daylight at epoch
Visualization orbit readout
Latitude
Unknown
Longitude
Unknown
Altitude
Unknown
Speed
Unknown
Apparent Right ascension
Unknown
Apparent Declination
Unknown
Sunlit
N/A
Visualization observer readout
Local Sidereal Time
10:18:04
Azimuth
Unknown
Elevation
Unknown
Doppler factor
Unknown
Orbital elements
Apogee altitude
476.55 km
Perigee altitude
474.32 km
Semi-major axis
6,853.572 km
Eccentricity
0.00016
Inclination
53.1585°
RAAN
103.0373°
Arg. of periapsis
101.0123°
True anomaly
259.08779°
Mean anomaly
259.1061°
Eccentric anomaly
259.09695°
Mean motion
3.82532 °/min
Orbital period
94.11 mins
BSTAR
0.00061011
Loading maneuver chart data...
Computing Atmospheric mass density...
Loading historical data...
Loading historical data...
Loading historical data...
Loading historical data...
Loading historical data...
Loading historical data...
Loading historical data...

Documentation

Showing up to 5 results
|